Location: Ch�teau-Arnoux
(44.0814°N, 6.0027°E)
Time: 21:38:18
(UTC+00:00)

Cosmos 1408 Rocket - Pass Details

Date: 15 November 2019
Orbit: 602 x 630 km, 82.6° (Epoch: 14 December)

Event Time Altitude Azimuth Distance (km) Brightness Sun altitude
Rises 05:52:33 0° 208° (SSW) 2,840 6.9 -7.2°
Reaches altitude 10° 05:54:53 10° 217° (SW) 1,943 5.9 -6.8°
Maximum altitude 05:58:50 35° 284° (WNW) 979 4.1 -6.1°
Drops below altitude 10° 06:02:51 10° 351° (N) 1,967 5.9 -5.4°
Sets 06:05:14 0° 1° (N) 2,879 6.8 -5.0°
